Torna al catalogo

THOR ABLESTAR DEB

AttivoLEO
NORAD 235·DEBRIS·🇺🇸 United States

Lanciato Jun 29, 1961 da Cape Canaveral Space Force Station

Loading…

Prossimi Passaggi (prossime 24 ore)

TLE

AggiornatoSource: Space-Track

Epoca: Sep 14, 2026, 10:16 UTC

1 00235U 61015BT  26257.42829191  .00000271  00000-0  16995-3 0  9994
2 00235  66.9548  46.6450 0166705 266.9836  91.2168 14.11406761333928

Traccia THOR ABLESTAR DEB in tempo reale con AllMySat

Download on the App Store